This demonstration page uses our WeatherBlox Daily Observations layout. Learn more.

Left ArrowRight Arrow

44.8408, -93.29828

Hourly Observations for June 18, 2015

Temp ( °F °C ) Dew Point ( °F °C ) Humidity (%) Winds ( mph kmh ) Pressure ( in mb ) Visibility ( mi km ) Precip ( " mm )
12:53 am 00:53 Mostly Clear 63 17.2 59 15 87 87 NW 6 9 29.93 1013 10 16 0.00 0.00
1:53 am 01:53 Mostly Clear 62 16.7 59 15 90 90 Calm 29.93 1014 10 16 0.00 0.00
2:53 am 02:53 Mostly Cloudy 62 16.7 58 14.4 86 86 WNW 5 7 29.94 1014 10 16 0.00 0.00
3:53 am 03:53 Cloudy 63 17.2 58 14.4 84 84 NW 10 17 29.94 1014 10 16 0.00 0.00
4:53 am 04:53 Cloudy 63 17.2 57 13.9 81 81 NW 9 15 29.95 1014 10 16 0.00 0.00
5:53 am 05:53 Mostly Cloudy 63 17.2 57 13.9 81 81 NW 9 15 29.96 1015 10 16 0.00 0.00
6:53 am 06:53 Mostly Cloudy 63 17.2 57 13.9 81 81 NNW 10 17 29.99 1016 10 16 0.00 0.00
7:53 am 07:53 Mostly Cloudy 65 18.3 57 13.9 76 76 NW 7 11 30.01 1016 10 16 0.00 0.00
8:53 am 08:53 Mostly Cloudy 68 20 58 14.4 70 70 NNW 8 13 30.02 1017 10 16 0.00 0.00
9:53 am 09:53 Mostly Cloudy 68 20 58 14.4 70 70 NNW 10 17 30.03 1017 10 16 0.00 0.00
10:53 am 10:53 Mostly Cloudy 71 21.7 59 15 66 66 NNW 7 11 30.04 1017 10 16 0.00 0.00
11:53 am 11:53 Mostly Cloudy 74 23.3 59 15 60 60 N 3 6 30.04 1017 10 16 0.00 0.00
12:53 pm 12:53 Partly Cloudy 75 23.9 58 14.4 55 55 NNW 8 13 30.05 1018 10 16 0.00 0.00
1:53 pm 13:53 Mostly Cloudy 76 24.4 58 14.4 54 54 NNW 12 19 30.05 1018 10 16 0.00 0.00
2:53 pm 14:53 Partly Cloudy 77 25 58 14.4 52 52 VRB 6 9 30.04 1017 10 16 0.00 0.00
3:53 pm 15:53 Partly Cloudy 77 25 56 13.3 48 48 N 9 15 30.04 1017 10 16 0.00 0.00
4:53 pm 16:53 Mostly Cloudy 77 25 57 13.9 50 50 NNW 13 20 30.03 1017 10 16 0.00 0.00
5:53 pm 17:53 Partly Cloudy 78 25.6 56 13.3 47 47 NNW 8 13 30.02 1017 10 16 0.00 0.00
6:53 pm 18:53 Partly Cloudy 77 25 56 13.3 48 48 N 9 15 30.03 1017 10 16 0.00 0.00
7:53 pm 19:53 Mostly Sunny 75 23.9 53 11.7 46 46 N 9 15 30.04 1017 10 16 0.00 0.00
8:53 pm 20:53 Mostly Sunny 72 22.2 55 12.8 55 55 NNE 9 15 30.05 1018 10 16 0.00 0.00
9:53 pm 21:53 Mostly Clear 70 21.1 54 12.2 57 57 NNE 9 15 30.08 1019 10 16 0.00 0.00
10:53 pm 22:53 Clear 68 20 53 11.7 59 59 NNE 5 7 30.09 1019 10 16 0.00 0.00
11:53 pm 23:53 Clear 67 19.4 53 11.7 61 61 NE 6 9 30.09 1019 10 16 0.00 0.00

Powered by AerisWeather